Wind_Speed
13 12 10 9 9 9 9 8 6 4 3 2 2 1 0 2 3 4 4 4 4 4 3 3 3 3 3 3 3 2 1 2 1 2 2 2 3 3 3 4 4 4 5 5
14 13 12 11 10 11 10 9 8 6 5 5 4 3 2 3 3 4 4 4 4 3 2 2 2 3 3 3 3 3 2 2 2 2 2 2 3 3 3 3 3 3 4 5
14 14 13 12 11 11 11 10 10 9 8 8 6 5 4 4 3 3 4 5 3 2 2 2 3 3 2 3 4 4 3 3 2 2 3 3 3 4 4 4 4 4 5 6
16 16 15 13 12 11 11 12 12 11 10 10 8 6 5 5 4 5 5 5 5 4 4 4 3 3 3 3 3 4 4 3 2 3 3 4 4 5 4 5 5 6 6 7
16 17 16 14 13 13 12 13 13 12 12 12 10 9 7 6 6 6 7 6 6 6 5 5 5 4 4 4 4 5 5 4 4 4 5 5 5 5 5 6 6 7 7 8
17 17 16 15 14 14 13 13 14 14 14 13 12 12 8 8 8 7 7 7 7 7 8 7 7 6 5 5 5 6 6 6 5 6 6 6 6 5 6 7 7 7 8 8
17 17 16 15 15 14 14 14 14 14 14 14 13 13 11 10 9 8 8 9 9 8 9 9 9 8 7 6 7 8 8 7 6 6 7 7 7 7 8 8 8 8 9 9
18 18 17 16 15 14 14 15 15 15 15 14 14 14 12 12 11 10 10 10 9 9 9 10 9 9 8 7 8 9 9 7 6 7 7 8 8 8 9 9 9 10 11 12
18 17 18 17 17 17 15 15 16 17 17 17 17 15 14 13 12 11 11 11 11 10 11 10 9 10 10 10 9 10 10 8 8 7 8 8 9 9 10 10 11 12 13 13
19 18 18 18 19 19 18 17 18 19 19 19 19 18 16 15 14 13 12 12 12 11 12 12 10 9 10 10 11 10 10 10 9 9 9 9 9 10 11 11 12 12 13 13
21 20 18 19 20 20 20 20 20 20 20 21 20 19 17 16 15 14 13 13 13 12 11 11 10 10 10 11 11 11 10 10 10 10 10 11 11 11 12 13 13 13 14 14
22 21 21 20 21 21 22 22 21 21 21 22 22 20 17 17 17 16 15 14 14 13 12 12 12 11 11 11 12 12 11 11 11 11 12 12 13 13 13 14 15 16 16 16
22 23 22 22 23 22 23 23 23 23 23 24 23 21 18 18 18 17 16 15 15 14 13 13 13 13 12 12 12 13 13 13 12 13 13 13 14 14 15 17 17 17 17 18
24 24 24 23 23 23 23 24 24 25 26 24 23 22 20 19 19 19 18 16 16 16 15 14 14 14 14 13 13 13 13 14 14 14 14 14 14 15 16 17 19 19 19 20
26 26 25 24 24 24 24 24 25 25 25 25 24 22 21 21 20 19 19 18 17 17 16 16 16 17 16 15 14 14 15 15 16 16 17 17 17 17 18 19 20 21 21 21
26 26 25 24 24 25 25 25 25 25 24 25 24 22 20 20 20 20 19 19 19 17 17 18 19 19 17 16 16 16 17 18 18 19 19 20 20 20 20 21 22 22 22 22
26 26 26 25 24 25 26 24 25 25 25 25 25 23 22 21 21 20 20 19 19 19 19 19 19 19 19 18 19 18 19 19 20 21 21 21 21 21 21 22 23 24 24 23
27 27 26 25 25 26 24 25 25 25 24 24 25 24 23 23 22 21 21 20 19 20 20 20 20 19 20 21 20 21 21 20 21 22 22 24 24 23 23 23 24 24 25 25
28 27 27 27 27 27 26 25 26 25 24 24 25 25 24 24 23 22 21 21 21 21 21 21 21 21 22 22 23 23 23 21 22 22 23 25 25 25 24 24 25 25 25 25
30 29 29 29 28 28 27 26 26 25 25 24 25 24 23 24 24 23 23 23 23 23 23 22 22 23 23 24 24 24 23 23 23 23 24 25 26 26 25 25 26 26 25 26
31 31 31 30 30 30 28 28 28 27 26 25 24 23 24 24 25 25 25 25 25 24 24 24 25 25 25 25 25 25 25 25 25 26 26 26 26 26 27 27 27 27 27 27
32 32 32 32 32 31 30 30 29 29 28 27 25 25 26 26 26 26 26 25 25 25 26 25 26 27 27 27 27 26 26 26 27 27 27 28 29 27 27 28 28 27 27 27
33 32 33 33 33 32 31 31 31 30 29 27 27 27 27 27 26 27 27 27 26 26 26 27 27 28 29 29 28 28 28 28 28 28 29 29 30 29 28 28 28 28 28 28
33 33 32 32 33 33 32 32 32 31 29 28 28 28 29 28 28 28 27 27 28 28 27 28 29 30 30 29 29 29 29 29 29 29 30 30 29 28 28 28 28 28 29 29
32 32 33 32 32 33 33 33 33 33 31 30 30 30 30 30 30 29 29 28 27 27 27 29 30 30 30 30 30 29 29 29 29 29 30 29 29 28 29 29 29 30 30 30
32 32 33 33 32 32 31 32 32 32 32 31 31 31 32 31 31 30 29 28 28 28 29 30 31 31 30 30 30 29 29 29 29 29 29 29 29 29 30 29 30 29 30 30
Wind_Direction
224 224 221 224 226 222 220 217 220 226 242 257 248 227 228 314 330 348 352 1 353 357 359 5 9 10 24 37 39 47 66 39 44 7 352 2 4 2 353 340 336 335 337 334
227 228 226 226 224 226 229 224 225 232 245 254 258 261 282 308 311 328 332 329 329 335 327 328 337 340 355 20 15 7 348 332 341 335 326 331 337 336 326 323 325 326 332 333
228 227 227 229 228 232 238 233 230 238 246 257 261 266 278 296 290 306 316 315 299 298 293 297 314 329 350 359 357 351 352 337 319 310 311 308 312 320 316 311 307 308 314 315
226 225 228 231 232 240 241 237 240 242 249 258 267 273 277 282 292 301 310 309 287 269 273 281 287 300 316 331 336 334 334 332 320 315 307 300 291 303 303 303 303 301 303 303
225 226 229 232 237 240 245 244 243 244 252 263 268 273 275 282 290 299 300 299 279 266 266 271 275 287 297 306 317 322 313 311 314 309 301 293 291 298 294 295 299 300 299 302
220 225 228 232 237 239 245 247 247 250 258 263 267 271 272 280 286 293 292 286 277 264 261 263 270 278 281 291 300 307 299 298 299 296 291 285 285 293 296 296 296 300 303 303
221 225 228 231 235 237 243 248 250 256 260 263 265 270 275 276 276 279 283 284 283 268 258 261 266 270 273 279 288 294 293 287 285 284 287 287 280 285 295 297 296 298 302 302
227 229 230 233 235 236 244 248 253 260 265 266 265 269 273 273 274 278 283 279 279 269 261 266 272 274 271 272 280 285 283 279 275 279 282 285 288 288 288 290 294 296 298 299
230 232 233 237 237 240 246 250 256 263 264 265 266 267 269 272 275 280 282 278 279 270 261 265 274 272 268 274 278 283 278 276 279 279 281 284 287 289 290 288 289 293 298 302
232 234 234 236 239 243 248 253 258 262 265 266 264 265 271 274 276 275 277 277 274 271 267 267 272 280 272 269 275 276 275 272 278 280 281 285 288 289 293 292 292 294 296 299
233 234 235 238 241 246 249 252 256 262 266 266 267 268 272 274 274 276 275 274 274 273 269 268 269 274 274 271 271 279 281 279 277 280 280 282 283 284 289 291 292 293 296 298
234 237 239 242 245 247 252 255 257 261 265 266 268 270 270 271 271 273 276 276 275 268 264 266 271 271 272 269 271 279 275 273 276 281 281 281 283 285 288 292 293 293 295 298
234 238 242 243 245 249 254 256 257 261 264 266 266 269 269 268 269 270 272 273 272 269 264 267 269 267 267 268 273 281 278 273 276 280 285 288 288 288 290 293 293 294 293 294
239 244 247 248 250 253 255 257 258 260 262 264 265 269 268 270 270 269 266 267 269 270 268 265 264 262 262 266 273 281 281 282 285 286 289 293 293 290 291 293 294 293 292 290
241 246 249 250 250 254 257 258 259 260 262 262 265 267 269 269 271 269 265 262 264 266 265 265 268 269 264 264 272 279 281 285 287 288 290 292 293 292 290 292 294 294 293 290
244 246 249 251 251 253 255 255 256 257 260 263 264 264 266 267 268 269 267 264 263 263 264 266 269 271 270 273 277 280 282 285 286 289 291 291 292 291 291 292 293 293 293 291
245 248 250 251 253 254 252 254 255 256 260 263 262 262 263 266 270 271 268 265 265 264 265 268 268 268 270 274 276 280 282 285 285 287 288 290 292 293 294 293 292 292 291 290
248 249 249 251 253 253 254 254 256 258 260 261 261 260 264 267 268 269 269 266 265 264 265 267 269 271 273 274 277 280 278 282 285 287 288 291 293 292 295 295 294 293 293 291
248 249 251 253 255 258 257 256 257 258 259 261 262 262 263 263 263 266 267 264 263 262 265 267 269 273 275 276 277 278 277 282 286 287 288 290 291 292 293 294 295 295 294 292
247 248 251 254 257 260 259 259 259 262 262 263 264 263 263 263 263 266 265 263 260 262 264 266 268 271 275 278 277 276 278 279 281 285 287 288 289 291 292 293 295 294 292 291
246 248 250 254 257 260 262 262 262 263 264 264 265 264 263 263 264 263 263 260 259 261 265 267 268 270 274 278 276 276 277 278 280 282 286 287 289 291 292 292 294 293 290 290
247 248 250 253 256 259 262 263 263 265 265 265 265 266 264 262 262 263 264 264 263 262 263 267 268 270 273 275 277 279 279 279 282 284 285 286 289 291 291 291 292 291 291 293
246 248 250 252 255 258 260 262 264 265 267 266 263 264 264 262 260 261 263 264 265 263 263 266 270 271 273 275 276 278 279 279 281 282 283 284 288 288 288 288 289 289 291 293
246 247 248 250 253 257 259 262 264 266 268 268 265 263 264 265 265 263 261 261 262 263 263 266 269 271 273 273 276 278 279 280 281 282 283 285 286 287 288 288 289 290 291 292
245 246 248 249 251 253 258 261 262 264 266 267 265 263 264 266 267 266 264 263 262 262 265 267 270 271 273 273 274 276 278 279 280 281 282 284 286 288 290 290 290 290 291 291
244 246 248 250 251 254 257 258 260 262 263 263 263 264 264 265 264 264 265 263 263 264 266 268 270 271 271 272 273 275 278 281 281 281 281 282 284 285 288 290 291 291 291 291
Height
5892 5895 5896 5898 5898 5899 5900 5901 5902 5902 5902 5903 5903 5903 5903 5903 5902 5902 5901 5900 5900 5899 5899 5898 5898 5897 5897 5896 5895 5895 5894 5894 5893 5893 5892 5892 5892 5892 5891 5891 5890 5890 5890 5889
5891 5893 5895 5895 5896 5898 5899 5900 5901 5902 5902 5902 5902 5902 5902 5902 5902 5901 5901 5900 5900 5899 5899 5899 5898 5897 5897 5896 5895 5895 5894 5893 5893 5893 5892 5892 5891 5891 5891 5890 5890 5889 5889 5888
5889 5892 5893 5894 5895 5896 5897 5899 5900 5900 5901 5901 5901 5902 5902 5901 5901 5901 5900 5900 5899 5899 5898 5898 5898 5897 5896 5896 5895 5894 5893 5892 5892 5892 5892 5891 5891 5890 5890 5889 5889 5889 5888 5887
5886 5889 5890 5892 5893 5894 5895 5897 5898 5898 5899 5899 5901 5901 5901 5900 5900 5900 5900 5899 5898 5898 5897 5897 5897 5896 5896 5895 5894 5893 5892 5891 5891 5891 5890 5890 5889 5889 5888 5888 5887 5887 5886 5886
5884 5886 5888 5890 5891 5892 5893 5894 5895 5896 5897 5898 5898 5899 5900 5899 5899 5899 5898 5898 5897 5896 5896 5896 5896 5895 5895 5894 5893 5892 5891 5890 5890 5890 5889 5888 5888 5888 5887 5887 5886 5885 5885 5884
5881 5883 5885 5887 5889 5890 5891 5892 5893 5893 5894 5896 5896 5897 5898 5898 5898 5898 5897 5896 5895 5894 5895 5894 5894 5893 5893 5892 5891 5891 5890 5889 5888 5887 5887 5886 5886 5886 5886 5885 5884 5884 5883 5882
5879 5881 5883 5885 5886 5887 5889 5890 5891 5891 5892 5893 5894 5894 5896 5896 5896 5895 5895 5894 5893 5893 5892 5892 5891 5891 5890 5890 5889 5888 5887 5886 5886 5886 5885 5884 5884 5884 5884 5883 5882 5882 5881 5880
5876 5878 5880 5882 5883 5885 5886 5887 5889 5889 5889 5890 5891 5891 5893 5893 5893 5893 5892 5891 5891 5891 5890 5889 5889 5888 5888 5888 5887 5886 5885 5884 5884 5883 5883 5882 5882 5881 5881 5881 5880 5879 5878 5877
5872 5875 5877 5879 5880 5882 5883 5884 5885 5886 5886 5887 5888 5889 5890 5890 5890 5890 5890 5889 5888 5888 5887 5887 5887 5886 5886 5886 5885 5884 5883 5882 5882 5881 5881 5880 5879 5879 5878 5878 5877 5877 5876 5874
5868 5871 5873 5875 5877 5878 5880 5881 5881 5882 5882 5882 5884 5885 5886 5887 5887 5887 5887 5886 5885 5885 5885 5884 5884 5884 5883 5883 5882 5881 5880 5880 5880 5879 5879 5878 5877 5876 5876 5875 5874 5873 5872 5871
5864 5867 5870 5871 5873 5874 5876 5877 5877 5878 5878 5879 5879 5883 5883 5883 5883 5883 5883 5883 5882 5882 5882 5882 5882 5881 5880 5880 5879 5879 5878 5877 5877 5876 5876 5875 5874 5874 5873 5872 5871 5870 5869 5868
5859 5862 5864 5867 5869 5870 5871 5872 5873 5874 5874 5874 5875 5880 5879 5879 5879 5879 5879 5880 5879 5879 5879 5879 5879 5878 5878 5877 5877 5876 5875 5875 5874 5873 5873 5872 5871 5871 5870 5869 5868 5867 5866 5864
5855 5857 5859 5861 5865 5866 5866 5867 5868 5869 5870 5870 5871 5875 5875 5875 5875 5875 5876 5876 5875 5875 5876 5876 5875 5875 5875 5874 5874 5873 5872 5872 5871 5870 5869 5869 5867 5867 5866 5865 5864 5863 5862 5860
5850 5852 5855 5857 5859 5860 5861 5862 5863 5864 5864 5865 5866 5868 5870 5870 5870 5871 5871 5871 5872 5872 5871 5871 5871 5872 5871 5871 5871 5870 5869 5868 5867 5866 5866 5865 5864 5862 5861 5861 5859 5858 5857 5856
5845 5847 5849 5851 5853 5854 5855 5857 5857 5858 5859 5860 5861 5862 5864 5865 5865 5865 5866 5867 5867 5867 5867 5867 5867 5867 5866 5866 5866 5866 5865 5864 5863 5862 5862 5860 5859 5858 5857 5856 5854 5853 5851 5850
5839 5841 5843 5845 5847 5847 5848 5850 5851 5852 5853 5854 5855 5857 5858 5858 5859 5860 5861 5862 5862 5863 5863 5863 5863 5862 5862 5862 5862 5861 5860 5859 5858 5857 5856 5855 5854 5853 5851 5850 5849 5847 5845 5843
5833 5835 5837 5839 5840 5841 5842 5844 5844 5845 5846 5848 5849 5851 5852 5853 5854 5854 5855 5856 5857 5857 5858 5858 5858 5857 5857 5857 5856 5856 5855 5854 5853 5852 5850 5849 5847 5846 5845 5844 5842 5840 5838 5837
5827 5829 5831 5832 5834 5835 5839 5838 5839 5840 5841 5842 5843 5844 5846 5847 5848 5848 5849 5849 5850 5851 5852 5852 5852 5852 5852 5851 5851 5850 5849 5848 5847 5846 5845 5843 5842 5841 5839 5837 5836 5834 5832 5830
5821 5823 5824 5826 5827 5828 5831 5832 5833 5834 5835 5836 5837 5838 5839 5840 5841 5842 5843 5843 5844 5844 5845 5846 5846 5846 5846 5845 5844 5844 5843 5842 5841 5840 5839 5837 5836 5834 5832 5831 5829 5827 5825 5823
5814 5816 5818 5819 5820 5822 5825 5826 5826 5828 5828 5830 5830 5831 5832 5833 5834 5836 5836 5837 5837 5838 5839 5839 5839 5839 5839 5838 5837 5837 5836 5836 5835 5834 5832 5830 5829 5827 5825 5823 5822 5820 5818 5816
5807 5808 5810 5812 5813 5814 5817 5818 5820 5822 5823 5823 5824 5825 5826 5827 5828 5829 5829 5829 5830 5831 5831 5832 5832 5832 5832 5831 5830 5829 5829 5828 5827 5826 5824 5823 5821 5819 5817 5815 5814 5812 5810 5809
5799 5801 5803 5805 5806 5810 5810 5811 5813 5814 5815 5816 5817 5818 5819 5820 5820 5821 5821 5822 5823 5823 5824 5824 5824 5824 5824 5824 5823 5823 5822 5821 5820 5818 5817 5815 5813 5811 5809 5808 5807 5805 5803 5801
5790 5794 5795 5798 5800 5801 5803 5804 5805 5806 5807 5808 5809 5810 5811 5812 5812 5813 5814 5814 5815 5816 5816 5816 5816 5816 5816 5816 5816 5815 5814 5813 5811 5810 5809 5808 5806 5804 5802 5800 5798 5797 5795 5792
5782 5785 5787 5789 5791 5793 5795 5796 5797 5798 5799 5800 5801 5803 5803 5804 5804 5805 5805 5806 5807 5807 5808 5808 5808 5809 5808 5808 5807 5806 5806 5805 5803 5802 5800 5799 5797 5796 5793 5792 5790 5788 5786 5784
5774 5776 5778 5781 5784 5785 5787 5788 5790 5790 5791 5792 5793 5795 5795 5796 5797 5796 5796 5797 5798 5799 5799 5800 5800 5800 5799 5799 5798 5797 5796 5796 5794 5793 5792 5790 5789 5787 5785 5783 5781 5780 5778 5776
5766 5768 5770 5773 5775 5777 5779 5780 5781 5782 5783 5784 5785 5786 5787 5787 5788 5788 5788 5789 5789 5790 5790 5790 5791 5790 5790 5789 5789 5788 5788 5787 5786 5784 5783 5781 5780 5778 5777 5775 5773 5771 5769 5767